Wind_Speed
10 10 10 10 9 9 8 8 9 9 10 10 11 11 12 13 13 14 15 14 14 14 14 15 15 15 15 15 15 16 16 15 15 16 16 17 17 16 16 16 17 17 17
13 12 12 12 11 11 10 10 11 11 11 12 13 13 13 14 14 15 16 16 16 16 16 16 16 16 16 16 16 16 17 17 17 18 18 18 18 18 18 18 19 18 18
15 14 14 14 13 13 13 13 13 13 14 14 15 15 15 15 16 17 17 18 17 17 17 17 17 17 17 17 18 18 18 18 19 19 19 19 19 20 20 20 20 20 20
17 17 16 15 14 15 14 14 15 15 16 16 16 17 17 17 18 19 19 19 19 19 19 19 19 19 19 19 20 20 20 20 20 20 20 21 21 21 21 21 22 21 21
17 17 16 15 15 16 16 17 17 17 18 18 18 19 19 20 20 21 21 21 21 21 21 20 20 20 20 21 21 22 22 22 22 22 22 22 23 22 22 22 22 22 22
16 16 16 16 17 18 18 18 19 19 19 19 20 20 20 21 21 22 22 22 22 22 22 22 22 22 22 22 23 23 23 23 24 24 24 24 24 24 23 24 24 23 23
17 17 18 18 19 20 20 20 20 20 20 20 21 22 22 22 23 23 23 23 22 22 22 23 23 23 23 24 24 24 24 25 26 26 25 26 26 26 26 25 25 25 24
19 18 19 20 21 21 21 21 22 22 22 22 22 23 23 23 24 24 23 23 22 22 23 24 24 25 25 25 25 26 26 27 27 27 27 27 27 27 27 27 27 26 26
19 19 20 21 22 23 22 22 23 22 22 23 22 23 24 24 24 25 24 24 24 24 25 25 25 26 26 27 27 28 28 29 29 29 29 28 29 29 29 29 28 28 28
19 20 21 22 22 23 23 24 23 22 22 23 23 25 25 25 25 25 26 26 26 26 26 27 27 27 28 28 28 29 29 29 30 30 30 30 30 31 31 31 30 30 30
21 21 22 22 23 23 24 24 23 23 23 24 25 26 26 27 27 26 27 27 27 27 28 28 29 29 29 29 30 30 30 30 30 30 31 31 31 32 32 32 31 31 31
23 23 23 23 24 25 25 25 25 25 24 25 26 26 27 28 28 28 28 28 28 28 28 29 30 30 30 30 30 31 31 31 31 31 32 32 32 32 33 33 33 32 32
25 24 24 24 24 25 25 24 25 25 25 25 26 26 27 27 28 29 29 29 29 29 28 29 30 31 31 31 31 31 32 32 32 32 33 32 32 33 34 33 33 33 33
26 26 26 26 26 26 26 26 26 26 26 26 26 27 27 28 28 28 29 29 29 30 30 30 30 30 31 31 31 32 32 33 33 33 33 32 33 33 34 34 35 35 35
27 27 27 28 28 28 28 28 27 27 28 28 27 27 28 29 29 29 30 30 30 29 30 30 30 30 31 31 31 32 32 32 33 33 33 33 33 34 34 35 35 35 36
28 28 29 30 30 29 29 28 28 28 28 29 29 29 29 29 30 30 29 29 29 29 29 30 30 30 30 30 31 32 32 33 34 34 33 33 34 34 35 35 35 35 35
29 30 30 31 31 30 29 29 29 29 29 29 29 30 30 30 29 29 30 29 30 30 31 30 30 30 31 32 32 33 33 33 33 33 34 34 34 34 35 35 35 35 35
30 30 30 30 30 30 29 29 29 29 29 28 29 29 29 29 29 29 30 31 31 32 31 31 31 31 32 33 34 34 34 34 34 34 34 35 35 35 35 35 35 34 34
30 30 31 31 31 31 30 29 29 29 29 29 29 29 29 29 29 30 31 31 31 31 31 32 32 32 32 32 33 33 33 33 34 34 34 34 35 35 36 35 34 33 32
31 31 31 32 32 31 30 30 30 30 30 30 30 30 31 30 30 30 30 30 31 30 30 31 31 31 32 32 33 33 33 33 33 33 33 33 33 33 33 33 32 31 30
31 31 32 32 32 31 31 31 30 30 29 30 30 30 30 29 29 30 30 30 30 30 31 32 32 32 32 33 33 34 33 33 33 33 32 32 32 32 31 31 31 31 31
32 32 32 32 32 31 31 30 30 30 30 30 29 30 30 30 30 30 30 30 31 31 31 31 32 32 33 33 33 33 34 34 33 33 33 32 32 31 31 30 30 30 30
33 32 32 32 32 31 31 30 30 30 30 30 30 30 30 30 31 31 31 31 31 31 31 31 31 32 32 33 33 34 34 33 32 33 32 31 30 30 30 30 30 30 30
32 32 32 32 31 31 31 31 30 30 30 30 31 31 30 30 31 31 31 31 31 31 32 32 32 33 33 33 34 33 33 33 33 32 32 31 30 30 30 30 30 31 31
30 30 31 31 31 31 31 31 31 30 30 30 31 31 32 32 32 32 32 32 32 32 32 33 33 33 33 33 33 33 33 33 33 32 32 32 31 31 30 31 31 31 32
28 29 29 29 29 30 30 30 30 30 30 30 31 32 32 32 32 32 33 33 33 33 33 33 33 33 33 33 33 33 33 33 33 33 33 33 32 31 31 31 31 31 31
Wind_Direction
274 274 275 278 284 287 290 289 288 290 292 293 295 298 299 298 298 302 303 303 303 306 306 302 298 298 299 300 300 303 306 307 308 309 310 311 313 311 310 311 309 307 305
267 267 270 272 277 282 285 286 285 286 289 291 291 291 292 295 299 301 301 302 304 302 301 301 301 298 297 297 297 300 302 304 305 305 306 308 309 309 308 305 304 303 304
267 269 270 271 274 279 282 284 284 284 285 286 289 292 291 293 297 300 297 299 300 298 297 297 297 295 294 294 295 298 301 302 303 302 303 303 304 305 305 304 302 302 302
268 267 270 271 272 276 279 284 283 286 286 285 288 292 295 293 295 299 298 296 295 294 293 292 292 289 289 291 294 296 298 298 299 299 298 300 302 303 303 302 301 301 301
269 264 267 272 273 275 277 280 283 285 288 285 287 290 292 293 295 297 296 294 292 290 290 291 290 289 288 289 291 294 295 296 297 298 298 297 298 298 299 301 300 300 299
269 265 266 271 274 276 277 279 282 284 286 286 285 287 289 290 292 295 293 291 290 291 292 293 291 289 288 289 290 292 293 294 295 296 296 295 295 294 294 296 297 297 297
271 271 272 275 277 278 277 279 281 283 285 285 286 286 287 288 290 292 293 291 290 291 291 292 292 291 289 288 289 292 293 294 295 296 296 295 293 291 293 293 294 294 296
277 278 279 278 278 279 279 279 281 284 285 283 284 286 287 288 290 290 290 289 288 288 290 291 292 291 289 288 287 288 291 293 294 295 294 294 295 294 293 295 295 295 294
281 281 280 282 282 282 281 284 282 283 285 285 285 285 286 287 289 288 286 287 287 287 288 289 290 290 290 288 288 288 289 291 292 294 294 293 294 293 293 294 293 294 293
281 280 280 281 283 284 284 286 282 283 285 285 284 285 286 286 287 287 284 285 286 287 288 289 289 289 290 289 289 289 290 291 292 292 293 293 294 293 293 292 292 292 291
279 278 281 282 283 283 282 283 281 284 285 284 285 285 285 285 285 284 284 285 285 286 287 288 288 288 290 290 290 290 290 291 293 293 292 292 292 292 293 292 292 292 290
281 280 280 283 285 286 284 283 283 285 287 286 286 287 288 286 285 284 285 287 287 288 288 287 287 288 290 291 292 291 291 291 293 293 293 291 291 291 291 290 290 290 290
282 281 280 283 283 285 286 287 287 288 288 288 287 287 289 288 287 286 286 288 289 290 290 290 288 288 290 291 291 292 292 292 293 293 293 293 292 290 289 289 288 289 289
278 279 280 282 282 284 285 287 288 288 288 289 290 289 289 288 289 289 289 290 290 290 289 289 291 290 291 291 292 292 293 293 293 293 293 292 292 291 291 291 290 289 289
277 279 279 278 280 282 283 284 285 286 287 288 287 288 289 288 288 289 291 291 291 291 292 292 292 293 293 292 293 293 294 294 293 293 293 293 293 292 292 292 292 291 291
276 277 278 279 278 280 281 281 284 287 288 287 286 286 287 288 288 289 291 292 291 292 294 295 295 294 294 294 293 293 294 294 294 294 294 294 293 293 292 293 292 291 291
275 276 277 280 280 280 280 280 283 287 288 286 285 285 285 287 289 290 291 292 292 293 294 294 295 294 294 294 294 294 294 294 294 294 294 294 293 292 292 292 292 292 290
278 277 279 279 281 282 282 282 283 285 285 285 286 286 285 286 288 289 289 290 291 293 294 295 295 295 295 296 296 296 296 296 295 294 293 293 292 292 292 291 292 292 291
278 278 280 281 281 282 282 282 283 284 285 284 285 286 286 287 287 289 290 291 293 293 294 295 295 295 296 297 298 299 298 297 296 295 294 294 293 293 292 291 291 291 291
279 280 281 282 282 282 283 283 284 285 285 285 285 285 286 286 287 289 291 292 295 295 295 296 296 296 296 297 299 300 300 300 298 297 297 296 296 295 295 293 292 292 291
279 279 280 281 282 283 283 284 284 284 284 285 286 287 287 289 290 290 291 294 296 296 296 295 295 296 298 298 298 300 300 301 301 301 300 299 298 297 295 293 292 293 293
279 279 280 280 281 281 282 283 283 284 284 285 286 287 288 289 290 292 293 294 295 296 296 296 297 298 297 298 300 301 301 301 302 302 301 300 298 296 294 293 293 293 293
279 279 279 280 280 280 281 282 283 283 283 284 286 287 288 289 289 291 292 293 295 296 295 295 297 297 298 299 300 301 303 303 302 303 303 301 299 297 295 294 293 293 292
278 278 277 278 278 279 279 280 282 283 283 283 284 285 287 288 289 290 291 293 295 296 296 296 297 297 298 300 301 301 302 302 303 303 301 300 298 297 296 295 294 294 293
278 278 278 278 278 278 278 279 280 281 282 282 283 283 285 288 290 290 291 293 295 295 295 296 297 297 298 299 299 300 301 302 302 301 300 299 298 297 296 296 295 294 293
280 280 280 280 278 278 278 278 279 280 281 282 283 285 286 288 290 290 291 293 295 295 295 296 297 297 298 298 299 299 300 300 300 300 299 299 298 297 297 297 296 295 294
Height
5885 5885 5885 5884 5883 5882 5881 5881 5880 5879 5877 5876 5875 5874 5873 5872 5871 5869 5868 5866 5865 5864 5862 5861 5859 5858 5856 5855 5854 5852 5850 5849 5848 5846 5844 5842 5840 5839 5837 5835 5833 5831 5830
5882 5882 5881 5881 5880 5880 5879 5878 5877 5876 5875 5873 5872 5871 5870 5869 5868 5866 5865 5863 5861 5860 5859 5857 5855 5854 5853 5851 5850 5848 5847 5845 5844 5842 5840 5838 5836 5834 5833 5831 5829 5827 5825
5878 5878 5878 5877 5877 5876 5875 5874 5873 5872 5871 5869 5868 5867 5866 5865 5863 5862 5861 5859 5857 5856 5854 5853 5851 5850 5848 5847 5846 5844 5842 5841 5839 5837 5836 5834 5832 5830 5828 5826 5824 5822 5821
5873 5873 5873 5873 5873 5872 5871 5870 5869 5868 5867 5865 5864 5863 5862 5861 5859 5858 5856 5854 5853 5851 5850 5848 5847 5845 5844 5842 5841 5839 5838 5836 5834 5832 5831 5829 5827 5825 5823 5821 5819 5817 5816
5868 5868 5868 5869 5868 5868 5867 5866 5865 5863 5862 5861 5860 5859 5857 5856 5854 5853 5851 5849 5848 5846 5844 5843 5842 5840 5839 5837 5836 5834 5832 5830 5828 5827 5825 5823 5822 5820 5818 5816 5814 5812 5810
5863 5863 5863 5863 5863 5862 5862 5860 5860 5858 5857 5856 5855 5853 5852 5851 5849 5847 5846 5844 5842 5840 5839 5837 5836 5835 5833 5832 5830 5828 5826 5825 5823 5821 5819 5817 5815 5813 5812 5810 5808 5806 5805
5858 5858 5858 5858 5857 5857 5856 5855 5854 5853 5852 5850 5849 5848 5847 5845 5844 5842 5840 5838 5837 5835 5833 5832 5830 5829 5827 5825 5824 5822 5820 5818 5817 5815 5813 5811 5809 5807 5805 5803 5801 5800 5798
5853 5853 5853 5852 5851 5850 5849 5848 5847 5846 5845 5844 5843 5842 5840 5839 5837 5836 5834 5832 5831 5829 5827 5826 5824 5822 5820 5818 5817 5815 5813 5812 5810 5808 5806 5804 5802 5800 5798 5796 5794 5792 5790
5847 5847 5846 5846 5845 5844 5843 5842 5841 5840 5838 5837 5836 5835 5834 5833 5831 5829 5827 5826 5824 5823 5821 5819 5817 5815 5813 5811 5809 5808 5806 5804 5802 5800 5798 5796 5794 5792 5790 5788 5787 5785 5783
5841 5840 5839 5839 5838 5837 5836 5835 5834 5833 5831 5830 5829 5828 5827 5825 5824 5822 5820 5819 5817 5816 5814 5812 5810 5808 5806 5804 5802 5800 5798 5796 5794 5792 5790 5788 5786 5784 5782 5780 5778 5777 5775
5833 5833 5832 5831 5830 5830 5829 5828 5827 5826 5824 5823 5823 5821 5820 5819 5817 5815 5813 5812 5810 5808 5806 5804 5802 5800 5798 5796 5794 5792 5790 5788 5786 5784 5782 5780 5778 5776 5773 5771 5769 5768 5766
5827 5826 5826 5825 5824 5823 5822 5821 5820 5819 5818 5817 5815 5814 5812 5811 5809 5808 5806 5804 5803 5801 5799 5797 5794 5792 5790 5788 5786 5784 5781 5779 5777 5775 5773 5771 5769 5767 5765 5763 5760 5758 5757
5820 5819 5819 5818 5817 5816 5816 5814 5813 5812 5811 5809 5808 5807 5805 5803 5802 5800 5798 5797 5795 5793 5791 5789 5786 5784 5782 5780 5778 5775 5773 5770 5768 5766 5764 5762 5760 5758 5755 5753 5751 5749 5747
5813 5812 5812 5811 5810 5809 5809 5807 5806 5805 5803 5802 5801 5800 5798 5796 5795 5793 5791 5788 5786 5784 5782 5780 5778 5776 5774 5771 5769 5766 5764 5761 5759 5757 5755 5752 5750 5748 5745 5743 5741 5739 5737
5805 5804 5804 5804 5802 5802 5801 5800 5799 5798 5796 5794 5793 5792 5790 5789 5787 5785 5783 5781 5778 5776 5774 5772 5770 5768 5765 5763 5760 5757 5754 5752 5749 5747 5745 5742 5740 5737 5735 5733 5730 5728 5726
5797 5796 5795 5794 5793 5793 5792 5791 5790 5789 5788 5786 5785 5784 5782 5781 5779 5777 5775 5773 5770 5768 5766 5764 5761 5759 5756 5754 5751 5749 5746 5743 5740 5737 5735 5732 5730 5727 5725 5722 5720 5717 5715
5788 5788 5787 5786 5785 5785 5783 5782 5782 5781 5779 5778 5776 5775 5774 5772 5770 5769 5767 5765 5762 5760 5758 5755 5753 5750 5748 5745 5742 5739 5736 5733 5730 5728 5725 5722 5719 5717 5714 5712 5709 5707 5704
5780 5779 5778 5778 5777 5776 5775 5774 5773 5772 5771 5769 5768 5767 5765 5763 5762 5760 5758 5756 5754 5752 5749 5747 5744 5742 5739 5736 5733 5730 5727 5723 5720 5717 5714 5712 5709 5706 5704 5701 5699 5696 5694
5771 5770 5770 5769 5768 5767 5766 5766 5765 5763 5762 5761 5760 5758 5757 5755 5753 5751 5750 5748 5746 5744 5741 5738 5736 5733 5730 5727 5724 5720 5717 5714 5710 5707 5704 5701 5698 5696 5693 5690 5688 5685 5683
5761 5761 5760 5759 5759 5758 5757 5756 5755 5754 5753 5752 5751 5750 5748 5746 5744 5743 5741 5740 5737 5735 5732 5729 5727 5724 5721 5718 5715 5712 5708 5705 5701 5697 5694 5691 5688 5685 5682 5680 5677 5675 5673
5751 5750 5750 5749 5749 5748 5747 5747 5746 5745 5744 5743 5742 5740 5739 5737 5736 5734 5733 5731 5729 5726 5724 5721 5718 5715 5712 5709 5706 5702 5699 5695 5692 5688 5685 5682 5678 5675 5672 5670 5667 5665 5663
5741 5740 5740 5739 5738 5738 5738 5737 5736 5735 5735 5734 5733 5732 5730 5729 5727 5726 5724 5722 5720 5717 5715 5712 5709 5706 5703 5700 5696 5693 5689 5686 5682 5679 5675 5672 5669 5666 5663 5660 5658 5656 5653
5731 5730 5730 5729 5729 5728 5728 5728 5727 5726 5726 5725 5724 5723 5722 5720 5719 5717 5716 5713 5711 5708 5706 5703 5700 5697 5693 5690 5687 5683 5680 5676 5673 5669 5666 5662 5659 5656 5653 5651 5649 5647 5644
5721 5721 5720 5720 5719 5719 5719 5719 5718 5717 5717 5716 5715 5714 5713 5711 5710 5708 5706 5704 5702 5699 5696 5693 5690 5687 5684 5681 5677 5674 5671 5667 5663 5660 5656 5653 5650 5647 5644 5642 5639 5637 5634
5711 5711 5710 5710 5710 5710 5709 5709 5709 5708 5707 5706 5705 5705 5703 5702 5701 5699 5697 5694 5692 5689 5686 5684 5681 5678 5674 5671 5668 5664 5661 5657 5654 5650 5647 5643 5640 5637 5634 5632 5629 5626 5624
5702 5701 5701 5700 5700 5700 5700 5700 5699 5699 5698 5697 5696 5695 5694 5693 5691 5689 5686 5684 5682 5679 5677 5674 5671 5668 5665 5661 5658 5655 5651 5648 5644 5641 5637 5634 5631 5628 5625 5622 5619 5616 5613